Tracking 31027 objects as of 19-Jul-2025
HD Live streaming from Space Station
objects crossing your sky now

COSMOS 2251 DEB

Track COSMOS 2251 DEB now!
10-day predictions


NORAD ID: 34059
Int'l Code: 1993-036JW
Perigee: 712.9 km
Apogee: 741.3 km
Inclination: 74.0 °
Period: 99.2 minutes
Semi major axis: 7098 km
RCS: 0.045 m2 (small)
Launch date: June 16, 1993
Source: Commonwealth of Independent States (former USSR) (CIS)
Launch site: PLESETSK MISSILE AND SPACE COMPLEX (PKMTR)

Note: This is SATELLITE DEBRIS
Your satellite tracking list
COSMOS 1656
Track 1 satellite(s)




NASA's NSSDC Master Catalog

Two Line Element Set (TLE):
1 34059U 93036JW  25199.48056012  .00001773  00000-0  44705-3 0  9995
2 34059  74.0384 103.7732 0020034 218.7563 318.1257 14.51738209863210
Source of the keplerian elements: AFSPC